Location: Baia de Cri?
(46.1667°N, 22.7167°E)
Time: 22:12:14
(UTC+00:00)

Cosmos 44 - Pass Details

Date: 15 January 2026
Orbit: 570 x 780 km, 65.1° (Epoch: 13 February)

Event Time Altitude Azimuth Distance (km) Brightness Sun altitude
Exits shadow 04:02:50 21° 341° (NNW) 1,694 5.0 -21.1°
Maximum altitude 04:06:14 49° 47° (NE) 1,001 4.3 -20.5°
Drops below altitude 10° 04:11:27 10° 122° (ESE) 2,329 7.0 -19.6°
Sets 04:13:56 0° 128° (SE) 3,248 7.9 -19.2°
